This is the latest recevied weather packets stored in our database for station/object SR3WXA. If no packets are shown the sender has not sent any weather packets the latest 10 day(s).
| Time | Temp. | Humidity | Pressure | Rain* | Wind** | Luminosity | Snow |
|---|---|---|---|---|---|---|---|
| 1788528716 | 23.33° C | 73% | 1005.6 hPa | 0 mm | - | 188 W/m² | - |
| 1788528655 | 23.33° C | 73% | 1005.6 hPa | 0 mm | - | 188 W/m² | - |
| 1788528425 | 23.33° C | 74% | 1005.7 hPa | 0 mm | - | 255 W/m² | - |
| 1788528355 | 23.33° C | 74% | 1005.7 hPa | 0 mm | - | 255 W/m² | - |
| 1788527906 | 23.33° C | 75% | 1005.9 hPa | 0 mm | - | 496 W/m² | - |
| 1788527841 | 23.33° C | 75% | 1005.9 hPa | 0 mm | - | 496 W/m² | - |
| 1788527596 | 22.78° C | 76% | 1006 hPa | 0 mm | - | 455 W/m² | - |
| 1788527541 | 22.78° C | 76% | 1006 hPa | 0 mm | - | 455 W/m² | - |
| 1788527362 | 22.78° C | 76% | 1006 hPa | 0 mm | - | 506 W/m² | - |
| 1788527241 | 22.78° C | 76% | 1006 hPa | 0 mm | - | 506 W/m² | - |
| 1788527057 | 22.78° C | 76% | 1006.4 hPa | 0 mm | - | 571 W/m² | - |
| 1788526941 | 22.78° C | 76% | 1006.4 hPa | 0 mm | - | 571 W/m² | - |
| 1788526748 | 22.22° C | 76% | 1006.5 hPa | 0 mm | - | 809 W/m² | - |
| 1788526641 | 22.22° C | 76% | 1006.5 hPa | 0 mm | - | 809 W/m² | - |
| 1788526381 | 22.78° C | 75% | 1006.7 hPa | 0 mm | - | 84 W/m² | - |
| 1788526362 | 22.78° C | 75% | 1006.7 hPa | 0 mm | - | 84 W/m² | - |
| 1788526114 | 22.78° C | 75% | 1006.8 hPa | 0 mm | - | 65 W/m² | - |
| 1788526041 | 22.78° C | 75% | 1006.8 hPa | 0 mm | - | 65 W/m² | - |
| 1788525862 | 22.78° C | 74% | 1006.8 hPa | 0 mm | - | 132 W/m² | - |
| 1788525741 | 22.78° C | 74% | 1006.8 hPa | 0 mm | - | 132 W/m² | - |
| 1788525261 | 22.78° C | 75% | 1007 hPa | 0 mm | - | 388 W/m² | - |
| 1788525175 | 22.78° C | 75% | 1007 hPa | 0 mm | - | 388 W/m² | - |
| 1788524632 | 22.22° C | 75% | 1007.2 hPa | 0 mm | - | 390 W/m² | - |
| 1788524573 | 22.22° C | 75% | 1007.2 hPa | 0 mm | - | 390 W/m² | - |
| 1788524275 | 22.22° C | 75% | 1007.3 hPa | 0 mm | - | 243 W/m² | - |
* Rain latest hour (hover to see other rain measurements)
** Current wind speed in m/s (hover to see current wind gust speed)